Weather History for Sauk Centre, MN

Change the Weather History Date:

Monday, October 8, 2012

  Actual Average (KGHW) Record (KGHW)
Temperature  
Mean Temperature 46 °F -  
Max Temperature 59 °F 60 °F 85 °F (1966)
Min Temperature 32 °F 38 °F 20 °F (1985)
Degree Days  
Heating Degree Days 20    
Moisture  
Dew Point 28 °F    
Average Humidity 57    
Maximum Humidity 87    
Minimum Humidity 42    
Precipitation  
Precipitation 0.00 in - - ()
Sea Level Pressure  
Sea Level Pressure 29.67 in    
Wind  
Wind Speed 7 mph (SSW)    
Max Wind Speed 21 mph    
Max Gust Speed 32 mph    
Visibility 10 miles    
Events Rain    
Averages and records for this station are not official NWS values.
T = Trace of Precipitation, MM = Missing Value Source: NWS Daily Summary

Daily Weather History Graph

Daily Weather History Graph

Search for Another Location

Airport:

Trip Planner

Search our weather history database for the weather conditions in past years. The results will help you decide how hot, cold, wet, or windy it might be!

Date:

Astronomy

Oct. 08, 2012 Rise Set
Actual Time 7:27 AM CDT 6:45 PM CDT
Civil Twilight 6:57 AM CDT 7:15 PM CDT
Nautical Twilight 6:23 AM CDT 7:49 PM CDT
Astronomical Twilight 5:48 AM CDT 8:24 PM CDT
Moon No Moon Rise 2:54 PM CDT (10/8)
Length of Visible Light 12h 17m
Length of Day
11h 18m
Last Quarter, 46% of the Moon is Illuminated
Oct 8
Last Quarter
Oct 15
New
Oct 21
First Quarter
Oct 29
Full
Nov 6
Last Quarter

Hourly Weather History & Observations

Time (CDT) Temp. Windchill Dew Point Humidity Pressure Visibility Wind Dir Wind Speed Gust Speed Precip Events Conditions
12:15 AM 33.8 °F 28.6 °F 19.4 °F 56% 29.80 in 10.0 mi South 5.8 mph - N/A   Clear
12:55 AM 32.0 °F - 19.4 °F 60% 29.79 in 10.0 mi Calm Calm - N/A   Clear
1:15 AM 33.8 °F 30.8 °F 19.4 °F 56% 29.79 in 10.0 mi South 3.5 mph - N/A   Clear
1:35 AM 32.0 °F 28.7 °F 19.4 °F 60% 29.78 in 10.0 mi South 3.5 mph - N/A   Clear
1:55 AM 33.8 °F 30.8 °F 19.4 °F 56% 29.78 in 10.0 mi South 3.5 mph - N/A   Clear
2:15 AM 33.8 °F 28.6 °F 19.4 °F 56% 29.78 in 10.0 mi South 5.8 mph - N/A   Clear
2:55 AM 33.8 °F - 19.4 °F 56% 29.77 in 10.0 mi Calm Calm - N/A   Clear
3:15 AM 33.8 °F - 19.4 °F 56% 29.76 in 10.0 mi Calm Calm - N/A   Clear
3:35 AM 33.8 °F - 19.4 °F 56% 29.75 in 10.0 mi Calm Calm - N/A   Mostly Cloudy
3:55 AM 33.8 °F 30.8 °F 19.4 °F 56% 29.75 in 10.0 mi South 3.5 mph - N/A   Mostly Cloudy
4:15 AM 33.8 °F 30.8 °F 19.4 °F 56% 29.74 in 10.0 mi SSE 3.5 mph - N/A   Scattered Clouds
4:35 AM 33.8 °F 29.6 °F 19.4 °F 56% 29.74 in 10.0 mi South 4.6 mph - N/A   Mostly Cloudy
4:55 AM 35.6 °F 30.7 °F 19.4 °F 52% 29.73 in 10.0 mi South 5.8 mph - N/A   Overcast
5:15 AM 35.6 °F 31.7 °F 19.4 °F 52% 29.72 in 10.0 mi SSE 4.6 mph - N/A   Overcast
5:35 AM 35.6 °F - 21.2 °F 56% 29.72 in 10.0 mi Calm Calm - N/A   Overcast
5:55 AM 35.6 °F 31.7 °F 21.2 °F 56% 29.71 in 10.0 mi South 4.6 mph - N/A   Overcast
6:15 AM 37.4 °F 31.4 °F 21.2 °F 52% 29.71 in 10.0 mi South 8.1 mph - N/A   Overcast
6:35 AM 37.4 °F 34.9 °F 21.2 °F 52% 29.70 in 10.0 mi SSE 3.5 mph - N/A   Overcast
6:55 AM 37.4 °F 31.4 °F 21.2 °F 52% 29.69 in 10.0 mi South 8.1 mph - N/A   Overcast
7:15 AM 37.4 °F 33.8 °F 23.0 °F 56% 29.69 in 10.0 mi SSE 4.6 mph - N/A   Overcast
7:35 AM 39.2 °F 35.0 °F 23.0 °F 52% 29.69 in 10.0 mi SSE 5.8 mph - N/A   Overcast
7:55 AM 37.4 °F 33.8 °F 23.0 °F 56% 29.70 in 10.0 mi South 4.6 mph - N/A   Overcast
8:15 AM 39.2 °F 35.0 °F 23.0 °F 52% 29.69 in 10.0 mi SSE 5.8 mph - N/A   Overcast
8:35 AM 41.0 °F 37.1 °F 23.0 °F 49% 29.68 in 10.0 mi South 5.8 mph - N/A   Overcast
8:55 AM 41.0 °F 36.4 °F 23.0 °F 49% 29.67 in 10.0 mi SSE 6.9 mph - N/A   Overcast
9:15 AM 42.8 °F 37.5 °F 23.0 °F 46% 29.65 in 10.0 mi SSE 9.2 mph - N/A   Overcast
9:35 AM 42.8 °F 38.0 °F 24.8 °F 49% 29.65 in 10.0 mi South 8.1 mph - N/A   Overcast
9:55 AM 44.6 °F 40.2 °F 24.8 °F 46% 29.64 in 10.0 mi South 8.1 mph - N/A   Overcast
10:15 AM 46.4 °F 40.7 °F 26.6 °F 46% 29.63 in 10.0 mi South 12.7 mph - N/A   Overcast
10:55 AM 48.2 °F - 26.6 °F 43% 29.60 in 10.0 mi South 12.7 mph - N/A   Overcast
11:15 AM 50.0 °F - 28.4 °F 43% 29.60 in 10.0 mi South 15.0 mph - N/A   Mostly Cloudy
11:35 AM 50.0 °F - 28.4 °F 43% 29.60 in 10.0 mi South 17.3 mph - N/A   Mostly Cloudy
11:55 AM 50.0 °F - 32.0 °F 50% 29.58 in 10.0 mi South 9.2 mph 12.7 mph N/A Rain Light Rain
12:15 PM 51.8 °F - 32.0 °F 47% 29.57 in 10.0 mi South 17.3 mph - N/A   Mostly Cloudy
12:55 PM 53.6 °F - 32.0 °F 44% 29.57 in 10.0 mi SSW 19.6 mph 26.5 mph N/A   Overcast
1:15 PM 53.6 °F - 32.0 °F 44% 29.57 in 10.0 mi SW 19.6 mph - N/A   Overcast
1:35 PM 50.0 °F - 33.8 °F 54% 29.57 in 10.0 mi SW 13.8 mph 19.6 mph N/A   Overcast
1:55 PM 51.8 °F - 32.0 °F 47% 29.56 in 10.0 mi SW 12.7 mph 17.3 mph N/A   Overcast
2:15 PM 53.6 °F - 33.8 °F 47% 29.57 in 10.0 mi WSW 16.1 mph - N/A Rain Light Rain
2:35 PM 53.6 °F - 33.8 °F 47% 29.56 in 10.0 mi WSW 13.8 mph 20.7 mph N/A Rain Light Rain
2:55 PM 55.4 °F - 33.8 °F 44% 29.56 in 10.0 mi West 16.1 mph 19.6 mph N/A   Overcast
3:15 PM 59.0 °F - 35.6 °F 42% 29.57 in 10.0 mi West 17.3 mph 24.2 mph N/A   Scattered Clouds
3:35 PM 59.0 °F - 35.6 °F 42% 29.57 in 10.0 mi West 20.7 mph 31.1 mph N/A   Clear
3:55 PM 59.0 °F - 37.4 °F 45% 29.57 in 10.0 mi West 17.3 mph 27.6 mph N/A   Scattered Clouds
4:15 PM 59.0 °F - 37.4 °F 45% 29.57 in 10.0 mi West 20.7 mph 27.6 mph N/A   Overcast
4:35 PM 57.2 °F - 39.2 °F 51% 29.58 in 10.0 mi West 16.1 mph 32.2 mph N/A   Overcast
4:55 PM 55.4 °F - 37.4 °F 51% 29.59 in 10.0 mi WNW 16.1 mph 32.2 mph N/A   Overcast
5:15 PM 55.4 °F - 37.4 °F 51% 29.61 in 10.0 mi WNW 17.3 mph 23.0 mph N/A   Overcast
5:35 PM 53.6 °F - 37.4 °F 54% 29.63 in 10.0 mi WNW 20.7 mph 24.2 mph N/A   Overcast
5:55 PM 53.6 °F - 37.4 °F 54% 29.64 in 10.0 mi WNW 18.4 mph 27.6 mph N/A   Overcast
6:35 PM 50.0 °F - 35.6 °F 58% 29.67 in 10.0 mi NW 17.3 mph - N/A   Clear
6:55 PM 46.4 °F 42.4 °F 35.6 °F 66% 29.68 in 10.0 mi WNW 8.1 mph - N/A   Clear
7:15 PM 46.4 °F 41.9 °F 35.6 °F 66% 29.69 in 10.0 mi WNW 9.2 mph - N/A   Clear
7:35 PM 44.6 °F 39.7 °F 35.6 °F 71% 29.69 in 10.0 mi WNW 9.2 mph - N/A   Clear
7:55 PM 44.6 °F 42.2 °F 35.6 °F 71% 29.69 in 10.0 mi WNW 4.6 mph - N/A   Clear
8:15 PM 42.8 °F 39.3 °F 35.6 °F 76% 29.69 in 10.0 mi West 5.8 mph - N/A   Clear
8:35 PM 41.0 °F 39.0 °F 33.8 °F 76% 29.69 in 10.0 mi WSW 3.5 mph - N/A   Clear
8:55 PM 39.2 °F 37.0 °F 33.8 °F 81% 29.70 in 10.0 mi SSW 3.5 mph - N/A   Clear
9:35 PM 37.4 °F 34.9 °F 32.0 °F 81% 29.70 in 10.0 mi SW 3.5 mph - N/A   Clear
9:55 PM 37.4 °F - 33.8 °F 87% 29.70 in 10.0 mi Calm Calm - N/A   Clear
10:15 PM 37.4 °F 34.9 °F 33.8 °F 87% 29.70 in 10.0 mi SW 3.5 mph - N/A   Scattered Clouds
10:55 PM 37.4 °F 32.1 °F 33.8 °F 87% 29.71 in 10.0 mi SW 6.9 mph - N/A   Clear
11:15 PM 39.2 °F 35.0 °F 33.8 °F 81% 29.71 in 10.0 mi WSW 5.8 mph - N/A   Clear
11:35 PM 37.4 °F 32.1 °F 33.8 °F 87% 29.72 in 10.0 mi WSW 6.9 mph - N/A   Clear